"Pseudo-MPEC" for P122jqp

Created 2024 Dec 5 1:31:25 UT using Find_Orb

Click here for an explanation of pseudo-MPECs

 
 Astrometry: 
     P122jqp* C2024 11 24.25466102 16 14.786+14 26 09.06   ~BO8l 21.69wXNEOCPF51
     P122jqp  C2024 11 24.26560802 16 15.810+14 26 23.01   ~BO8l 22.03wXNEOCPF51
     P122jqp  C2024 11 24.28737602 16 17.723+14 26 50.42   ~BO8l 22.18wXNEOCPF51

Station data:
(F51) Pan-STARRS 1, Haleakala  (N20.707234 W156.255910)  US/Hawaii.
   Observers J. Bulger, T. Lowe, A. Schultz, M. Willman. Measurers K.
   Chambers, S. Chastel, T. de Boer, L. Denneau, J. Fairlamb, H. Flewelling,
   M. Huber, C.-C. Lin, E. Magnier, Y. Ramanjooloo, R. Wainscoat, R. Weryk.
   1.8-m Ritchey-Chrétien + CCD.

Orbital elements:  P122jqp
   Perihelion 2024 Dec 1.48458 +/- 36 TT = 11:37:47 (JD 2460645.98458)
Epoch 2024 Nov 24.0 TT = JDT 2460638.5   Earth MOID: 0.1834   Ma: 0.0043
M 357.51667449 +/- 23               (J2000 ecliptic)             AutoNEOCP
n   0.33179244 +/- 0.32             Peri.   10.40433 +/- 60
a   2.06645070 +/- 1.33             Node    54.19271 +/- 34
e   0.4336948 +/- 0.248             Incl.    1.96661 +/- 1.6
P   2.97055                H 23.93  G  0.15   U 12.0  SR
q 1.17024173 +/- 0.357    Q 2.96265968 +/- 39.6
From 3 observations 2024 Nov. 24 (47.1 min); mean residual 0".17
Residuals in arcseconds: 
241124 F51  .22-  .03-    241124 F51  .33+  .05+    241124 F51  .11-  .02-    

Ephemerides (geocentric):
Date (UTC) HH   RA             Dec           delta  r     elong  mag " sig PA
---- --------  ------------   ------------  ------ ------ -----  --- --------
2024 12 05 02  02 38 37.413   +18 13 58.13  .20907 1.1708 149.8 22.0  36d  84
2024 12 05 03  02 38 43.364   +18 14 50.62  .20912 1.1709 149.7 22.0  36d  84
2024 12 05 04  02 38 49.320   +18 15 43.11  .20917 1.1709 149.7 22.0  36d  84
2024 12 05 05  02 38 55.282   +18 16 35.58  .20922 1.1709 149.7 22.0  36d  84
2024 12 05 06  02 39 01.249   +18 17 28.05  .20927 1.1709 149.7 22.0  36d  84
2024 12 05 07  02 39 07.222   +18 18 20.50  .20932 1.1709 149.7 22.0  36d  84
2024 12 05 08  02 39 13.201   +18 19 12.94  .20937 1.1709 149.7 22.0  36d  84
2024 12 05 09  02 39 19.185   +18 20 05.37  .20942 1.1709 149.6 22.0  36d  84
2024 12 05 10  02 39 25.175   +18 20 57.79  .20947 1.1710 149.6 22.0  36d  84
2024 12 05 11  02 39 31.170   +18 21 50.19  .20952 1.1710 149.6 22.0  36d  84
2024 12 05 12  02 39 37.171   +18 22 42.58  .20957 1.1710 149.6 22.0  36d  84
2024 12 05 13  02 39 43.178   +18 23 34.97  .20963 1.1710 149.6 22.0  36d  84
2024 12 05 14  02 39 49.190   +18 24 27.34  .20968 1.1710 149.6 22.0  36d  84
2024 12 05 15  02 39 55.207   +18 25 19.69  .20973 1.1710 149.6 22.0  36d  84
2024 12 05 16  02 40 01.230   +18 26 12.04  .20978 1.1711 149.5 22.0  36d  84
2024 12 05 17  02 40 07.259   +18 27 04.37  .20983 1.1711 149.5 22.0  36d  84
2024 12 05 18  02 40 13.293   +18 27 56.69  .20988 1.1711 149.5 22.0  36d  84
2024 12 05 19  02 40 19.333   +18 28 49.00  .20994 1.1711 149.5 22.0  36d  84
2024 12 05 20  02 40 25.378   +18 29 41.29  .20999 1.1711 149.5 22.0  36d  84
2024 12 05 21  02 40 31.429   +18 30 33.58  .21004 1.1711 149.5 22.0  36d  84
2024 12 05 22  02 40 37.485   +18 31 25.85  .21009 1.1712 149.4 22.0  36d  84
2024 12 05 23  02 40 43.546   +18 32 18.10  .21015 1.1712 149.4 22.0  36d  84
2024 12 06 00  02 40 49.613   +18 33 10.34  .21020 1.1712 149.4 22.0  36d  84
2024 12 06 01  02 40 55.686   +18 34 02.57  .21025 1.1712 149.4 22.0  36d  84
2024 12 06 02  02 41 01.764   +18 34 54.79  .21030 1.1712 149.4 22.0  36d  84
2024 12 06 03  02 41 07.848   +18 35 46.99  .21036 1.1712 149.4 22.1  36d  84
2024 12 06 04  02 41 13.937   +18 36 39.18  .21041 1.1713 149.4 22.1  36d  84
2024 12 06 05  02 41 20.031   +18 37 31.35  .21047 1.1713 149.3 22.1  36d  84
2024 12 06 06  02 41 26.131   +18 38 23.51  .21052 1.1713 149.3 22.1  36d  84
2024 12 06 07  02 41 32.236   +18 39 15.66  .21057 1.1713 149.3 22.1  36d  84
2024 12 06 08  02 41 38.347   +18 40 07.79  .21063 1.1713 149.3 22.1  36d  84
2024 12 06 09  02 41 44.463   +18 40 59.91  .21068 1.1714 149.3 22.1  37d  84
2024 12 06 10  02 41 50.585   +18 41 52.01  .21074 1.1714 149.3 22.1  37d  84
2024 12 06 11  02 41 56.712   +18 42 44.10  .21079 1.1714 149.2 22.1  37d  84
2024 12 06 12  02 42 02.844   +18 43 36.17  .21085 1.1714 149.2 22.1  37d  84
2024 12 06 13  02 42 08.982   +18 44 28.23  .21090 1.1714 149.2 22.1  37d  84
2024 12 06 14  02 42 15.126   +18 45 20.27  .21096 1.1715 149.2 22.1  37d  84
2024 12 06 15  02 42 21.274   +18 46 12.30  .21101 1.1715 149.2 22.1  37d  84
2024 12 06 16  02 42 27.428   +18 47 04.31  .21107 1.1715 149.2 22.1  37d  84
2024 12 06 17  02 42 33.587   +18 47 56.31  .21112 1.1715 149.2 22.1  37d  85
2024 12 06 18  02 42 39.752   +18 48 48.30  .21118 1.1715 149.1 22.1  37d  85
2024 12 06 19  02 42 45.922   +18 49 40.26  .21124 1.1716 149.1 22.1  37d  85
2024 12 06 20  02 42 52.098   +18 50 32.21  .21129 1.1716 149.1 22.1  37d  85
2024 12 06 21  02 42 58.278   +18 51 24.15  .21135 1.1716 149.1 22.1  37d  85
2024 12 06 22  02 43 04.464   +18 52 16.07  .21141 1.1716 149.1 22.1  37d  85
2024 12 06 23  02 43 10.656   +18 53 07.97  .21146 1.1716 149.1 22.1  37d  85
2024 12 07 00  02 43 16.853   +18 53 59.86  .21152 1.1717 149.0 22.1  37d  85
2024 12 07 01  02 43 23.055   +18 54 51.73  .21158 1.1717 149.0 22.1  37d  85